Time,TemperatureF,DewpointF,PressureIn,WindDirection,WindDirectionDegrees,WindSpeedMPH,WindSpeedGustMPH,Humidity,HourlyPrecipIn,Conditions,Clouds,dailyrainin,SoftwareType,DateUTC
2013-06-20 00:01:00,82.0,76.3,30.06,South,181,0.0,1.0,83,0.00,,,0.00,Wunderground v.1.15,2013-06-20 04:01:00,
2013-06-20 00:02:00,81.9,76.2,30.06,South,181,0.0,1.0,83,0.00,,,0.00,Wunderground v.1.15,2013-06-20 04:02:00,
2013-06-20 00:03:00,81.9,76.2,30.06,South,179,0.0,1.0,83,0.00,,,0.00,Wunderground v.1.15,2013-06-20 04:03:00,
2013-06-20 00:04:00,81.9,76.2,30.06,SW,221,0.0,1.0,83,0.00,,,0.00,Wunderground v.1.15,2013-06-20 04:04:00,
2013-06-20 00:09:00,81.9,76.6,30.07,WSW,254,0.0,1.0,84,0.00,,,0.00,Wunderground v.1.15,2013-06-20 04:09:00,
2013-06-20 00:12:00,82.0,76.7,30.07,WSW,253,0.0,0.0,84,0.00,,,0.00,Wunderground v.1.15,2013-06-20 04:12:00,
2013-06-20 00:17:00,81.9,76.6,30.07,WSW,253,0.0,0.0,84,0.00,,,0.00,Wunderground v.1.15,2013-06-20 04:17:00,
2013-06-20 00:22:00,81.7,76.4,30.07,WSW,253,0.0,0.0,84,0.00,,,0.00,Wunderground v.1.15,2013-06-20 04:22:00,
2013-06-20 00:27:00,81.6,76.3,30.07,WSW,253,0.0,0.0,84,0.00,,,0.00,Wunderground v.1.15,2013-06-20 04:27:00,
2013-06-20 00:32:00,81.6,76.6,30.07,WSW,253,0.0,0.0,85,0.00,,,0.00,Wunderground v.1.15,2013-06-20 04:32:00,
2013-06-20 00:37:00,81.5,76.2,30.07,WSW,253,0.0,0.0,84,0.00,,,0.00,Wunderground v.1.15,2013-06-20 04:37:00,
2013-06-20 00:43:00,81.4,76.1,30.07,WSW,253,0.0,0.0,84,0.00,,,0.00,Wunderground v.1.15,2013-06-20 04:43:00,
2013-06-20 00:48:00,81.4,76.1,30.07,WSW,253,0.0,0.0,84,0.00,,,0.00,Wunderground v.1.15,2013-06-20 04:48:00,
2013-06-20 00:53:00,81.4,76.1,30.07,WSW,253,0.0,0.0,84,0.00,,,0.00,Wunderground v.1.15,2013-06-20 04:53:00,
2013-06-20 00:58:00,81.2,76.3,30.07,WSW,254,0.0,0.0,85,0.00,,,0.00,Wunderground v.1.15,2013-06-20 04:58:00,
2013-06-20 01:04:00,81.1,76.2,30.07,WSW,253,0.0,0.0,85,0.00,,,0.00,Wunderground v.1.15,2013-06-20 05:04:00,
2013-06-20 01:09:00,81.1,76.2,30.07,WSW,253,0.0,0.0,85,0.00,,,0.00,Wunderground v.1.15,2013-06-20 05:09:00,
2013-06-20 01:14:00,81.2,76.3,30.06,West,262,0.0,0.0,85,0.00,,,0.00,Wunderground v.1.15,2013-06-20 05:14:00,
2013-06-20 01:19:00,81.4,76.5,30.06,West,281,0.0,0.0,85,0.00,,,0.00,Wunderground v.1.15,2013-06-20 05:19:00,
2013-06-20 01:24:00,81.5,76.6,30.06,West,262,2.0,2.0,85,0.00,,,0.00,Wunderground v.1.15,2013-06-20 05:24:00,
2013-06-20 01:29:00,81.4,76.5,30.06,West,279,0.0,2.0,85,0.00,,,0.00,Wunderground v.1.15,2013-06-20 05:29:00,
2013-06-20 01:35:00,81.1,76.2,30.06,WNW,284,0.0,1.0,85,0.00,,,0.00,Wunderground v.1.15,2013-06-20 05:35:00,
2013-06-20 01:40:00,80.9,76.3,30.05,West,276,0.0,0.0,86,0.00,,,0.00,Wunderground v.1.15,2013-06-20 05:40:00,
2013-06-20 01:45:00,80.8,76.2,30.05,West,276,0.0,1.0,86,0.00,,,0.00,Wunderground v.1.15,2013-06-20 05:45:00,
2013-06-20 01:50:00,80.8,76.2,30.05,West,281,0.0,0.0,86,0.00,,,0.00,Wunderground v.1.15,2013-06-20 05:50:00,
2013-06-20 01:55:00,80.7,76.1,30.06,West,281,0.0,0.0,86,0.00,,,0.00,Wunderground v.1.15,2013-06-20 05:55:00,
2013-06-20 02:00:00,80.5,75.9,30.05,WNW,283,0.0,0.0,86,0.00,,,0.00,Wunderground v.1.15,2013-06-20 06:00:00,
2013-06-20 02:05:00,80.4,75.8,30.06,NW,315,0.0,1.0,86,0.00,,,0.00,Wunderground v.1.15,2013-06-20 06:05:00,
2013-06-20 02:10:00,80.3,76.1,30.07,NE,41,0.0,0.0,87,0.00,,,0.00,Wunderground v.1.15,2013-06-20 06:10:00,
2013-06-20 02:15:00,80.3,76.1,30.07,NNE,33,0.0,1.0,87,0.00,,,0.00,Wunderground v.1.15,2013-06-20 06:15:00,
2013-06-20 02:20:00,80.2,76.0,30.06,NNE,30,0.0,0.0,87,0.00,,,0.00,Wunderground v.1.15,2013-06-20 06:20:00,
2013-06-20 02:25:00,80.0,75.8,30.06,NNE,32,0.0,0.0,87,0.00,,,0.00,Wunderground v.1.15,2013-06-20 06:25:00,
2013-06-20 02:30:00,79.9,75.7,30.06,ENE,59,0.0,0.0,87,0.00,,,0.00,Wunderground v.1.15,2013-06-20 06:30:00,
2013-06-20 02:35:00,79.9,76.0,30.06,ENE,60,0.0,0.0,88,0.00,,,0.00,Wunderground v.1.15,2013-06-20 06:35:00,
2013-06-20 02:40:00,79.8,75.6,30.06,ENE,58,0.0,0.0,87,0.00,,,0.00,Wunderground v.1.15,2013-06-20 06:40:00,
2013-06-20 02:45:00,79.7,75.5,30.05,East,96,0.0,0.0,87,0.00,,,0.00,Wunderground v.1.15,2013-06-20 06:45:00,
2013-06-20 02:50:00,79.5,74.9,30.05,East,83,1.0,2.0,86,0.00,,,0.00,Wunderground v.1.15,2013-06-20 06:50:00,
2013-06-20 02:55:00,79.2,73.9,30.06,East,87,5.0,5.0,84,0.00,,,0.00,Wunderground v.1.15,2013-06-20 06:55:00,
2013-06-20 03:00:00,79.0,73.7,30.05,East,85,3.0,3.0,84,0.00,,,0.00,Wunderground v.1.15,2013-06-20 07:00:00,
2013-06-20 03:05:00,78.6,73.4,30.05,ENE,63,0.0,4.0,84,0.00,,,0.00,Wunderground v.1.15,2013-06-20 07:05:00,
2013-06-20 03:10:00,78.4,73.5,30.04,NNE,17,0.0,1.0,85,0.00,,,0.00,Wunderground v.1.15,2013-06-20 07:10:00,
2013-06-20 03:15:00,78.2,73.3,30.04,NNE,19,0.0,1.0,85,0.00,,,0.00,Wunderground v.1.15,2013-06-20 07:15:00,
2013-06-20 03:20:00,78.1,73.2,30.05,ENE,66,0.0,0.0,85,0.00,,,0.00,Wunderground v.1.15,2013-06-20 07:20:00,
2013-06-20 03:25:00,78.0,73.5,30.05,NE,39,0.0,1.0,86,0.00,,,0.00,Wunderground v.1.15,2013-06-20 07:25:00,
2013-06-20 03:30:00,77.9,73.0,30.05,NE,53,1.0,1.0,85,0.00,,,0.00,Wunderground v.1.15,2013-06-20 07:30:00,
2013-06-20 03:35:00,77.9,73.0,30.05,NE,48,0.0,1.0,85,0.00,,,0.00,Wunderground v.1.15,2013-06-20 07:35:00,
2013-06-20 03:40:00,77.9,73.0,30.05,East,82,0.0,2.0,85,0.00,,,0.00,Wunderground v.1.15,2013-06-20 07:40:00,
2013-06-20 03:45:00,77.9,73.0,30.05,East,84,0.0,2.0,85,0.00,,,0.00,Wunderground v.1.15,2013-06-20 07:45:00,
2013-06-20 03:50:00,77.9,73.0,30.05,East,84,0.0,0.0,85,0.00,,,0.00,Wunderground v.1.15,2013-06-20 07:50:00,
2013-06-20 03:55:00,77.9,73.4,30.05,ESE,113,1.0,1.0,86,0.00,,,0.00,Wunderground v.1.15,2013-06-20 07:55:00,
2013-06-20 04:00:00,78.0,73.5,30.05,ENE,63,0.0,0.0,86,0.00,,,0.00,Wunderground v.1.15,2013-06-20 08:00:00,
2013-06-20 04:05:00,78.0,73.1,30.05,NE,55,0.0,5.0,85,0.00,,,0.00,Wunderground v.1.15,2013-06-20 08:05:00,
2013-06-20 04:10:00,78.1,72.9,30.05,NNE,24,0.0,4.0,84,0.00,,,0.00,Wunderground v.1.15,2013-06-20 08:10:00,
2013-06-20 04:15:00,78.3,73.1,30.05,ENE,77,0.0,4.0,84,0.00,,,0.00,Wunderground v.1.15,2013-06-20 08:15:00,
2013-06-20 04:20:00,78.8,73.6,30.05,ESE,103,3.0,5.0,84,0.00,,,0.00,Wunderground v.1.15,2013-06-20 08:20:00,
2013-06-20 04:25:00,79.2,73.6,30.04,East,101,1.0,9.0,83,0.00,,,0.00,Wunderground v.1.15,2013-06-20 08:25:00,
2013-06-20 04:30:00,79.4,73.4,30.04,SW,218,0.0,3.0,82,0.00,,,0.00,Wunderground v.1.15,2013-06-20 08:30:00,
2013-06-20 04:35:00,79.2,72.9,30.04,SSW,211,3.0,8.0,81,0.00,,,0.00,Wunderground v.1.15,2013-06-20 08:35:00,
2013-06-20 04:40:00,78.8,72.5,30.04,ENE,59,0.0,2.0,81,0.00,,,0.00,Wunderground v.1.15,2013-06-20 08:40:00,
2013-06-20 04:45:00,78.5,71.8,30.04,SW,214,0.0,5.0,80,0.00,,,0.00,Wunderground v.1.15,2013-06-20 08:45:00,
2013-06-20 04:50:00,78.4,71.7,30.04,East,85,0.0,1.0,80,0.00,,,0.00,Wunderground v.1.15,2013-06-20 08:50:00,
2013-06-20 04:56:00,78.4,72.1,30.05,East,86,0.0,1.0,81,0.00,,,0.00,Wunderground v.1.15,2013-06-20 08:56:00,
2013-06-20 05:00:00,78.3,72.7,30.05,East,84,2.0,4.0,83,0.00,,,0.00,Wunderground v.1.15,2013-06-20 09:00:00,
2013-06-20 05:05:00,78.1,72.9,30.06,ESE,118,0.0,4.0,84,0.00,,,0.00,Wunderground v.1.15,2013-06-20 09:05:00,
2013-06-20 05:10:00,77.8,72.9,30.05,SSW,205,0.0,1.0,85,0.00,,,0.00,Wunderground v.1.15,2013-06-20 09:10:00,
2013-06-20 05:16:00,77.6,72.4,30.06,SE,132,0.0,1.0,84,0.00,,,0.00,Wunderground v.1.15,2013-06-20 09:16:00,
2013-06-20 05:21:00,77.5,72.3,30.06,ESE,117,3.0,3.0,84,0.00,,,0.00,Wunderground v.1.15,2013-06-20 09:21:00,
2013-06-20 05:26:00,77.5,71.9,30.06,South,184,0.0,4.0,83,0.00,,,0.00,Wunderground v.1.15,2013-06-20 09:26:00,
2013-06-20 05:31:00,77.3,71.0,30.06,SW,219,3.0,3.0,81,0.00,,,0.00,Wunderground v.1.15,2013-06-20 09:31:00,
2013-06-20 05:36:00,77.3,71.0,30.06,SW,217,1.0,3.0,81,0.00,,,0.00,Wunderground v.1.15,2013-06-20 09:36:00,
2013-06-20 05:41:00,77.3,71.0,30.06,East,92,0.0,3.0,81,0.00,,,0.00,Wunderground v.1.15,2013-06-20 09:41:00,
2013-06-20 05:46:00,77.1,70.8,30.06,ESE,108,0.0,6.0,81,0.00,,,0.00,Wunderground v.1.15,2013-06-20 09:46:00,
2013-06-20 05:51:00,76.9,71.3,30.06,South,184,0.0,1.0,83,0.00,,,0.00,Wunderground v.1.15,2013-06-20 09:51:00,
2013-06-20 05:56:00,76.7,71.1,30.06,SE,127,1.0,4.0,83,0.00,,,0.00,Wunderground v.1.15,2013-06-20 09:56:00,
2013-06-20 06:01:00,76.4,70.9,30.06,ESE,117,0.0,4.0,83,0.00,,,0.00,Wunderground v.1.15,2013-06-20 10:01:00,
2013-06-20 06:06:00,76.2,71.0,30.05,East,89,0.0,4.0,84,0.00,,,0.00,Wunderground v.1.15,2013-06-20 10:06:00,
2013-06-20 06:11:00,76.1,70.9,30.05,ESE,113,0.0,0.0,84,0.00,,,0.00,Wunderground v.1.15,2013-06-20 10:11:00,
2013-06-20 06:16:00,75.9,70.7,30.06,SE,128,0.0,0.0,84,0.00,,,0.00,Wunderground v.1.15,2013-06-20 10:16:00,
2013-06-20 06:21:00,75.9,71.1,30.05,SW,226,0.0,1.0,85,0.00,,,0.00,Wunderground v.1.15,2013-06-20 10:21:00,
2013-06-20 06:26:00,75.8,70.6,30.05,SE,142,0.0,1.0,84,0.00,,,0.00,Wunderground v.1.15,2013-06-20 10:26:00,
2013-06-20 06:31:00,75.6,70.4,30.06,East,82,0.0,0.0,84,0.00,,,0.00,Wunderground v.1.15,2013-06-20 10:31:00,
2013-06-20 06:36:00,75.5,70.3,30.05,NE,54,0.0,0.0,84,0.00,,,0.00,Wunderground v.1.15,2013-06-20 10:36:00,
2013-06-20 06:41:00,75.5,70.3,30.05,NE,54,0.0,0.0,84,0.00,,,0.00,Wunderground v.1.15,2013-06-20 10:41:00,
2013-06-20 06:46:00,75.4,70.2,30.06,NE,54,0.0,0.0,84,0.00,,,0.00,Wunderground v.1.15,2013-06-20 10:46:00,
2013-06-20 06:51:00,75.4,70.2,30.06,NE,54,0.0,0.0,84,0.00,,,0.00,Wunderground v.1.15,2013-06-20 10:51:00,
2013-06-20 06:56:00,75.4,70.2,30.06,NE,54,0.0,0.0,84,0.00,,,0.00,Wunderground v.1.15,2013-06-20 10:56:00,
2013-06-20 07:01:00,75.4,70.2,30.06,NE,51,0.0,0.0,84,0.00,,,0.00,Wunderground v.1.15,2013-06-20 11:01:00,
2013-06-20 07:06:00,75.4,70.6,30.06,NW,309,0.0,1.0,85,0.00,,,0.00,Wunderground v.1.15,2013-06-20 11:06:00,
2013-06-20 07:11:00,75.6,70.8,30.06,NW,312,0.0,0.0,85,0.00,,,0.00,Wunderground v.1.15,2013-06-20 11:11:00,
2013-06-20 07:16:00,75.6,70.8,30.06,NNW,347,0.0,0.0,85,0.00,,,0.00,Wunderground v.1.15,2013-06-20 11:16:00,
2013-06-20 07:21:00,75.6,70.8,30.06,NNW,347,0.0,0.0,85,0.00,,,0.00,Wunderground v.1.15,2013-06-20 11:21:00,
2013-06-20 07:26:00,75.8,71.0,30.07,NNW,347,0.0,0.0,85,0.00,,,0.00,Wunderground v.1.15,2013-06-20 11:26:00,
2013-06-20 07:31:00,75.9,71.1,30.07,ENE,77,0.0,1.0,85,0.00,,,0.00,Wunderground v.1.15,2013-06-20 11:31:00,
2013-06-20 07:36:00,76.2,71.0,30.07,ENE,75,0.0,1.0,84,0.00,,,0.00,Wunderground v.1.15,2013-06-20 11:36:00,
2013-06-20 07:41:00,76.4,71.6,30.07,East,93,0.0,1.0,85,0.00,,,0.00,Wunderground v.1.15,2013-06-20 11:41:00,
2013-06-20 07:46:00,76.7,71.5,30.07,East,89,0.0,1.0,84,0.00,,,0.00,Wunderground v.1.15,2013-06-20 11:46:00,
2013-06-20 07:51:00,77.1,71.9,30.07,East,79,0.0,0.0,84,0.00,,,0.00,Wunderground v.1.15,2013-06-20 11:51:00,
2013-06-20 07:57:00,77.6,72.4,30.07,East,92,0.0,1.0,84,0.00,,,0.00,Wunderground v.1.15,2013-06-20 11:57:00,
2013-06-20 08:02:00,78.1,72.9,30.07,SE,134,0.0,0.0,84,0.00,,,0.00,Wunderground v.1.15,2013-06-20 12:02:00,
2013-06-20 08:07:00,78.7,73.1,30.07,SSW,207,0.0,1.0,83,0.00,,,0.00,Wunderground v.1.15,2013-06-20 12:07:00,
2013-06-20 08:12:00,79.5,74.2,30.08,East,85,1.0,1.0,84,0.00,,,0.00,Wunderground v.1.15,2013-06-20 12:12:00,
2013-06-20 08:17:00,80.3,73.9,30.08,ESE,106,0.0,1.0,81,0.00,,,0.00,Wunderground v.1.15,2013-06-20 12:17:00,
2013-06-20 08:22:00,80.7,74.3,30.08,ESE,105,0.0,1.0,81,0.00,,,0.00,Wunderground v.1.15,2013-06-20 12:22:00,
2013-06-20 08:27:00,81.5,74.7,30.08,East,94,0.0,1.0,80,0.00,,,0.00,Wunderground v.1.15,2013-06-20 12:27:00,
2013-06-20 08:32:00,81.8,74.6,30.08,East,93,1.0,1.0,79,0.00,,,0.00,Wunderground v.1.15,2013-06-20 12:32:00,
2013-06-20 08:37:00,81.8,74.3,30.08,East,97,0.0,1.0,78,0.00,,,0.00,Wunderground v.1.15,2013-06-20 12:37:00,
2013-06-20 08:42:00,81.9,74.7,30.08,East,99,0.0,0.0,79,0.00,,,0.00,Wunderground v.1.15,2013-06-20 12:42:00,
2013-06-20 08:47:00,82.0,74.8,30.08,East,84,0.0,1.0,79,0.00,,,0.00,Wunderground v.1.15,2013-06-20 12:47:00,
2013-06-20 08:52:00,82.5,75.3,30.08,ESE,104,1.0,1.0,79,0.00,,,0.00,Wunderground v.1.15,2013-06-20 12:52:00,
2013-06-20 08:57:00,82.9,75.7,30.08,East,100,0.0,2.0,79,0.00,,,0.00,Wunderground v.1.15,2013-06-20 12:57:00,
2013-06-20 09:02:00,83.1,76.3,30.08,East,89,0.0,0.0,80,0.00,,,0.00,Wunderground v.1.15,2013-06-20 13:02:00,
2013-06-20 09:07:00,83.4,76.6,30.08,NE,46,0.0,4.0,80,0.00,,,0.00,Wunderground v.1.15,2013-06-20 13:07:00,
2013-06-20 09:12:00,83.5,76.7,30.09,ESE,104,0.0,0.0,80,0.00,,,0.00,Wunderground v.1.15,2013-06-20 13:12:00,
2013-06-20 09:17:00,84.0,77.2,30.09,SSE,148,0.0,1.0,80,0.00,,,0.00,Wunderground v.1.15,2013-06-20 13:17:00,
2013-06-20 09:22:00,84.9,77.3,30.09,East,96,0.0,1.0,78,0.00,,,0.00,Wunderground v.1.15,2013-06-20 13:22:00,
2013-06-20 09:27:00,85.3,77.7,30.09,East,87,3.0,3.0,78,0.00,,,0.00,Wunderground v.1.15,2013-06-20 13:27:00,
2013-06-20 09:32:00,85.5,77.5,30.09,NNE,22,0.0,2.0,77,0.00,,,0.00,Wunderground v.1.15,2013-06-20 13:32:00,
2013-06-20 09:37:00,85.7,77.3,30.09,East,81,2.0,9.0,76,0.00,,,0.00,Wunderground v.1.15,2013-06-20 13:37:00,
2013-06-20 09:42:00,85.6,77.6,30.09,SE,124,2.0,7.0,77,0.00,,,0.00,Wunderground v.1.15,2013-06-20 13:42:00,
2013-06-20 09:47:00,85.6,77.6,30.09,East,100,0.0,8.0,77,0.00,,,0.00,Wunderground v.1.15,2013-06-20 13:47:00,
2013-06-20 09:52:00,85.8,77.8,30.09,SW,217,0.0,4.0,77,0.00,,,0.00,Wunderground v.1.15,2013-06-20 13:52:00,
2013-06-20 09:57:00,86.0,77.5,30.09,ESE,105,0.0,4.0,76,0.00,,,0.00,Wunderground v.1.15,2013-06-20 13:57:00,
2013-06-20 10:02:00,86.3,77.8,30.10,SSE,155,0.0,3.0,76,0.00,,,0.00,Wunderground v.1.15,2013-06-20 14:02:00,
2013-06-20 10:07:00,86.9,78.0,30.09,East,98,0.0,3.0,75,0.00,,,0.00,Wunderground v.1.15,2013-06-20 14:07:00,
2013-06-20 10:12:00,87.4,78.1,30.09,East,92,0.0,5.0,74,0.00,,,0.00,Wunderground v.1.15,2013-06-20 14:12:00,
2013-06-20 10:17:00,87.5,77.8,30.09,East,100,0.0,5.0,73,0.00,,,0.00,Wunderground v.1.15,2013-06-20 14:17:00,
2013-06-20 10:22:00,87.1,77.0,30.09,South,186,0.0,3.0,72,0.00,,,0.00,Wunderground v.1.15,2013-06-20 14:22:00,
2013-06-20 10:27:00,87.5,77.8,30.09,East,88,5.0,5.0,73,0.00,,,0.00,Wunderground v.1.15,2013-06-20 14:27:00,
2013-06-20 10:32:00,87.6,77.0,30.09,East,94,1.0,7.0,71,0.00,,,0.00,Wunderground v.1.15,2013-06-20 14:32:00,
2013-06-20 10:37:00,88.0,76.5,30.10,ESE,121,3.0,7.0,69,0.00,,,0.00,Wunderground v.1.15,2013-06-20 14:37:00,
2013-06-20 10:42:00,88.0,76.1,30.10,WSW,246,0.0,3.0,68,0.00,,,0.00,Wunderground v.1.15,2013-06-20 14:42:00,
2013-06-20 10:47:00,88.3,76.4,30.10,SE,143,0.0,3.0,68,0.00,,,0.00,Wunderground v.1.15,2013-06-20 14:47:00,
2013-06-20 10:52:00,88.6,75.8,30.10,ESE,121,0.0,5.0,66,0.00,,,0.00,Wunderground v.1.15,2013-06-20 14:52:00,
2013-06-20 10:57:00,88.8,75.5,30.09,ENE,70,4.0,6.0,65,0.00,,,0.00,Wunderground v.1.15,2013-06-20 14:57:00,
2013-06-20 11:02:00,89.3,76.4,30.09,SW,223,0.0,1.0,66,0.00,,,0.00,Wunderground v.1.15,2013-06-20 15:02:00,
2013-06-20 11:07:00,89.5,76.2,30.10,South,170,2.0,4.0,65,0.00,,,0.00,Wunderground v.1.15,2013-06-20 15:07:00,
2013-06-20 11:12:00,89.4,76.1,30.10,East,101,0.0,2.0,65,0.00,,,0.00,Wunderground v.1.15,2013-06-20 15:12:00,
2013-06-20 11:17:00,89.5,75.7,30.09,SSE,152,0.0,3.0,64,0.00,,,0.00,Wunderground v.1.15,2013-06-20 15:17:00,
2013-06-20 11:22:00,89.8,76.5,30.10,NE,56,0.0,4.0,65,0.00,,,0.00,Wunderground v.1.15,2013-06-20 15:22:00,
2013-06-20 11:27:00,89.8,76.9,30.10,ENE,76,0.0,4.0,66,0.00,,,0.00,Wunderground v.1.15,2013-06-20 15:27:00,
2013-06-20 11:32:00,89.9,75.1,30.10,NE,43,0.0,3.0,62,0.00,,,0.00,Wunderground v.1.15,2013-06-20 15:32:00,
2013-06-20 11:37:00,90.5,77.6,30.10,ENE,68,0.0,4.0,66,0.00,,,0.00,Wunderground v.1.15,2013-06-20 15:37:00,
2013-06-20 11:42:00,90.8,77.4,30.10,South,186,0.0,5.0,65,0.00,,,0.00,Wunderground v.1.15,2013-06-20 15:42:00,
2013-06-20 11:47:00,90.8,77.4,30.10,SW,229,0.0,6.0,65,0.00,,,0.00,Wunderground v.1.15,2013-06-20 15:47:00,
2013-06-20 11:52:00,90.6,77.2,30.09,SSE,160,2.0,5.0,65,0.00,,,0.00,Wunderground v.1.15,2013-06-20 15:52:00,
2013-06-20 11:57:00,90.8,76.9,30.09,ENE,68,3.0,5.0,64,0.00,,,0.00,Wunderground v.1.15,2013-06-20 15:57:00,
2013-06-20 12:02:00,90.7,75.9,30.09,WSW,256,0.0,2.0,62,0.00,,,0.00,Wunderground v.1.15,2013-06-20 16:02:00,
2013-06-20 12:07:00,90.8,76.9,30.09,East,89,0.0,3.0,64,0.00,,,0.00,Wunderground v.1.15,2013-06-20 16:07:00,
2013-06-20 12:13:00,91.6,77.2,30.09,SSW,198,0.0,2.0,63,0.00,,,0.00,Wunderground v.1.15,2013-06-20 16:13:00,
2013-06-20 12:18:00,91.5,76.1,30.09,SW,232,2.0,5.0,61,0.00,,,0.00,Wunderground v.1.15,2013-06-20 16:18:00,
2013-06-20 12:23:00,90.8,76.0,30.09,SE,127,2.0,7.0,62,0.00,,,0.00,Wunderground v.1.15,2013-06-20 16:23:00,
2013-06-20 12:28:00,91.1,76.3,30.09,ESE,114,5.0,8.0,62,0.00,,,0.00,Wunderground v.1.15,2013-06-20 16:28:00,
2013-06-20 12:33:00,91.3,76.0,30.09,SE,133,0.0,5.0,61,0.00,,,0.00,Wunderground v.1.15,2013-06-20 16:33:00,
2013-06-20 12:38:00,91.8,77.4,30.09,SW,217,2.0,5.0,63,0.00,,,0.00,Wunderground v.1.15,2013-06-20 16:38:00,
2013-06-20 12:44:00,91.7,76.8,30.09,SSW,193,1.0,3.0,62,0.00,,,0.00,Wunderground v.1.15,2013-06-20 16:44:00,
2013-06-20 12:49:00,91.7,75.3,30.09,SE,141,0.0,7.0,59,0.00,,,0.00,Wunderground v.1.15,2013-06-20 16:49:00,
2013-06-20 12:54:00,92.0,76.1,30.09,SE,134,0.0,6.0,60,0.00,,,0.00,Wunderground v.1.15,2013-06-20 16:54:00,
2013-06-20 12:59:00,92.3,76.9,30.09,ENE,60,1.0,6.0,61,0.00,,,0.00,Wunderground v.1.15,2013-06-20 16:59:00,
2013-06-20 13:04:00,92.5,76.1,30.09,NE,34,3.0,3.0,59,0.00,,,0.00,Wunderground v.1.15,2013-06-20 17:04:00,
2013-06-20 13:09:00,93.0,77.6,30.09,ENE,75,3.0,4.0,61,0.00,,,0.00,Wunderground v.1.15,2013-06-20 17:09:00,
2013-06-20 13:14:00,92.7,76.3,30.09,NNE,12,1.0,6.0,59,0.00,,,0.00,Wunderground v.1.15,2013-06-20 17:14:00,
2013-06-20 13:19:00,92.6,77.2,30.08,SSE,153,0.0,6.0,61,0.00,,,0.00,Wunderground v.1.15,2013-06-20 17:19:00,
2013-06-20 13:24:00,92.6,76.7,30.08,NE,55,1.0,8.0,60,0.00,,,0.00,Wunderground v.1.15,2013-06-20 17:24:00,
2013-06-20 13:29:00,92.8,76.9,30.08,South,169,0.0,8.0,60,0.00,,,0.00,Wunderground v.1.15,2013-06-20 17:29:00,
2013-06-20 13:34:00,93.1,77.2,30.08,NNE,25,0.0,2.0,60,0.00,,,0.00,Wunderground v.1.15,2013-06-20 17:34:00,
2013-06-20 13:39:00,93.2,76.2,30.08,East,86,0.0,6.0,58,0.00,,,0.00,Wunderground v.1.15,2013-06-20 17:39:00,
2013-06-20 13:44:00,92.9,77.0,30.08,NNE,20,2.0,8.0,60,0.00,,,0.00,Wunderground v.1.15,2013-06-20 17:44:00,
2013-06-20 13:49:00,92.5,76.1,30.08,SSE,148,0.0,8.0,59,0.00,,,0.00,Wunderground v.1.15,2013-06-20 17:49:00,
2013-06-20 13:54:00,92.5,76.6,30.08,NE,46,2.0,6.0,60,0.00,,,0.00,Wunderground v.1.15,2013-06-20 17:54:00,
2013-06-20 13:59:00,92.9,76.5,30.08,SSE,165,1.0,6.0,59,0.00,,,0.00,Wunderground v.1.15,2013-06-20 17:59:00,
2013-06-20 14:04:00,92.3,75.9,30.07,East,89,6.0,7.0,59,0.00,,,0.00,Wunderground v.1.15,2013-06-20 18:04:00,
2013-06-20 14:09:00,92.0,76.1,30.07,SE,128,0.0,7.0,60,0.00,,,0.00,Wunderground v.1.15,2013-06-20 18:09:00,
2013-06-20 14:14:00,92.1,75.7,30.07,East,96,0.0,5.0,59,0.00,,,0.00,Wunderground v.1.15,2013-06-20 18:14:00,
2013-06-20 14:19:00,92.3,75.4,30.07,ENE,69,0.0,5.0,58,0.00,,,0.00,Wunderground v.1.15,2013-06-20 18:19:00,
2013-06-20 14:24:00,92.3,76.4,30.07,East,92,1.0,7.0,60,0.00,,,0.00,Wunderground v.1.15,2013-06-20 18:24:00,
2013-06-20 14:29:00,92.8,77.4,30.07,ESE,105,4.0,10.0,61,0.00,,,0.00,Wunderground v.1.15,2013-06-20 18:29:00,
2013-06-20 14:34:00,92.2,76.8,30.06,ENE,60,0.0,10.0,61,0.00,,,0.00,Wunderground v.1.15,2013-06-20 18:34:00,
2013-06-20 14:39:00,91.5,76.6,30.07,SE,134,1.0,10.0,62,0.00,,,0.00,Wunderground v.1.15,2013-06-20 18:39:00,
2013-06-20 14:44:00,91.2,77.3,30.07,SE,128,1.0,7.0,64,0.00,,,0.00,Wunderground v.1.15,2013-06-20 18:44:00,
2013-06-20 14:49:00,91.4,77.0,30.06,South,188,1.0,7.0,63,0.00,,,0.00,Wunderground v.1.15,2013-06-20 18:49:00,
2013-06-20 14:54:00,91.3,76.9,30.06,SE,132,0.0,11.0,63,0.00,,,0.00,Wunderground v.1.15,2013-06-20 18:54:00,
2013-06-20 14:59:00,91.1,77.2,30.06,ESE,119,5.0,11.0,64,0.00,,,0.00,Wunderground v.1.15,2013-06-20 18:59:00,
2013-06-20 15:04:00,91.4,77.5,30.06,SE,132,2.0,7.0,64,0.00,,,0.00,Wunderground v.1.15,2013-06-20 19:04:00,
2013-06-20 15:09:00,91.3,77.4,30.06,SW,225,5.0,11.0,64,0.00,,,0.00,Wunderground v.1.15,2013-06-20 19:09:00,
2013-06-20 15:14:00,91.7,77.3,30.05,ENE,60,0.0,5.0,63,0.00,,,0.00,Wunderground v.1.15,2013-06-20 19:14:00,
2013-06-20 15:19:00,92.1,77.2,30.05,ESE,105,3.0,6.0,62,0.00,,,0.00,Wunderground v.1.15,2013-06-20 19:19:00,
2013-06-20 15:24:00,91.7,77.3,30.05,ESE,115,0.0,11.0,63,0.00,,,0.00,Wunderground v.1.15,2013-06-20 19:24:00,
2013-06-20 15:29:00,91.9,78.0,30.06,SE,127,6.0,11.0,64,0.00,,,0.00,Wunderground v.1.15,2013-06-20 19:29:00,
2013-06-20 15:34:00,91.5,77.6,30.05,ENE,69,1.0,11.0,64,0.00,,,0.00,Wunderground v.1.15,2013-06-20 19:34:00,
2013-06-20 15:39:00,91.0,76.7,30.05,East,86,0.0,12.0,63,0.00,,,0.00,Wunderground v.1.15,2013-06-20 19:39:00,
2013-06-20 15:44:00,91.2,76.8,30.06,East,89,2.0,9.0,63,0.00,,,0.00,Wunderground v.1.15,2013-06-20 19:44:00,
2013-06-20 15:49:00,90.9,77.0,30.05,East,100,2.0,10.0,64,0.00,,,0.00,Wunderground v.1.15,2013-06-20 19:49:00,
2013-06-20 15:54:00,91.2,76.8,30.05,ESE,103,9.0,9.0,63,0.00,,,0.00,Wunderground v.1.15,2013-06-20 19:54:00,
2013-06-20 15:59:00,91.0,77.1,30.05,East,79,2.0,12.0,64,0.00,,,0.00,Wunderground v.1.15,2013-06-20 19:59:00,
2013-06-20 16:04:00,90.4,77.0,30.05,ESE,115,6.0,9.0,65,0.00,,,0.00,Wunderground v.1.15,2013-06-20 20:04:00,
2013-06-20 16:09:00,89.7,76.4,30.05,SSE,159,0.0,9.0,65,0.00,,,0.00,Wunderground v.1.15,2013-06-20 20:09:00,
2013-06-20 16:14:00,89.2,76.4,30.05,ESE,106,0.0,7.0,66,0.00,,,0.00,Wunderground v.1.15,2013-06-20 20:14:00,
2013-06-20 16:19:00,88.9,76.1,30.05,ESE,104,6.0,7.0,66,0.00,,,0.00,Wunderground v.1.15,2013-06-20 20:19:00,
2013-06-20 16:24:00,88.5,76.1,30.05,East,90,0.0,6.0,67,0.00,,,0.00,Wunderground v.1.15,2013-06-20 20:24:00,
2013-06-20 16:29:00,88.0,75.7,30.06,ESE,111,4.0,7.0,67,0.00,,,0.00,Wunderground v.1.15,2013-06-20 20:29:00,
2013-06-20 16:34:00,87.6,75.7,30.06,East,93,3.0,5.0,68,0.00,,,0.00,Wunderground v.1.15,2013-06-20 20:34:00,
2013-06-20 16:39:00,87.4,75.5,30.06,SSE,162,0.0,5.0,68,0.00,,,0.00,Wunderground v.1.15,2013-06-20 20:39:00,
2013-06-20 16:44:00,87.4,76.0,30.06,West,267,0.0,3.0,69,0.00,,,0.00,Wunderground v.1.15,2013-06-20 20:44:00,
2013-06-20 16:49:00,87.2,75.8,30.06,East,93,2.0,6.0,69,0.00,,,0.00,Wunderground v.1.15,2013-06-20 20:49:00,
2013-06-20 16:54:00,87.0,75.6,30.06,East,82,0.0,4.0,69,0.00,,,0.00,Wunderground v.1.15,2013-06-20 20:54:00,
2013-06-20 16:59:00,86.9,75.9,30.06,NE,48,4.0,7.0,70,0.00,,,0.00,Wunderground v.1.15,2013-06-20 20:59:00,
2013-06-20 17:04:00,86.6,75.6,30.05,East,79,0.0,7.0,70,0.00,,,0.00,Wunderground v.1.15,2013-06-20 21:04:00,
2013-06-20 17:09:00,86.5,76.0,30.05,ESE,122,1.0,7.0,71,0.00,,,0.00,Wunderground v.1.15,2013-06-20 21:09:00,
2013-06-20 17:14:00,86.4,75.9,30.05,ENE,67,0.0,7.0,71,0.00,,,0.00,Wunderground v.1.15,2013-06-20 21:14:00,
2013-06-20 17:19:00,86.3,75.8,30.05,ESE,108,0.0,7.0,71,0.00,,,0.00,Wunderground v.1.15,2013-06-20 21:19:00,
2013-06-20 17:24:00,86.4,76.3,30.05,East,96,5.0,5.0,72,0.00,,,0.00,Wunderground v.1.15,2013-06-20 21:24:00,
2013-06-20 17:29:00,86.1,76.0,30.05,East,94,2.0,6.0,72,0.00,,,0.00,Wunderground v.1.15,2013-06-20 21:29:00,
2013-06-20 17:34:00,85.9,76.2,30.06,East,91,0.0,6.0,73,0.00,,,0.00,Wunderground v.1.15,2013-06-20 21:34:00,
2013-06-20 17:39:00,85.9,76.2,30.06,ENE,60,2.0,6.0,73,0.00,,,0.00,Wunderground v.1.15,2013-06-20 21:39:00,
2013-06-20 17:44:00,85.6,75.9,30.05,East,94,0.0,6.0,73,0.00,,,0.00,Wunderground v.1.15,2013-06-20 21:44:00,
2013-06-20 17:49:00,85.6,76.4,30.05,East,93,2.0,6.0,74,0.00,,,0.00,Wunderground v.1.15,2013-06-20 21:49:00,
2013-06-20 17:54:00,85.6,76.4,30.05,East,79,1.0,6.0,74,0.00,,,0.00,Wunderground v.1.15,2013-06-20 21:54:00,
2013-06-20 17:59:00,85.6,76.4,30.05,ENE,71,3.0,6.0,74,0.00,,,0.00,Wunderground v.1.15,2013-06-20 21:59:00,
2013-06-20 18:04:00,85.4,76.2,30.05,East,98,3.0,9.0,74,0.00,,,0.00,Wunderground v.1.15,2013-06-20 22:04:00,
2013-06-20 18:09:00,85.2,76.0,30.06,ESE,108,1.0,9.0,74,0.00,,,0.00,Wunderground v.1.15,2013-06-20 22:09:00,
2013-06-20 18:14:00,85.0,75.8,30.06,East,95,0.0,6.0,74,0.00,,,0.00,Wunderground v.1.15,2013-06-20 22:14:00,
2013-06-20 18:19:00,85.0,75.8,30.07,ESE,119,3.0,6.0,74,0.00,,,0.00,Wunderground v.1.15,2013-06-20 22:19:00,
2013-06-20 18:24:00,84.9,76.1,30.07,ENE,74,0.0,5.0,75,0.00,,,0.00,Wunderground v.1.15,2013-06-20 22:24:00,
2013-06-20 18:29:00,84.9,76.1,30.07,ESE,106,6.0,6.0,75,0.00,,,0.00,Wunderground v.1.15,2013-06-20 22:29:00,
2013-06-20 18:34:00,84.8,76.0,30.08,East,89,2.0,4.0,75,0.00,,,0.00,Wunderground v.1.15,2013-06-20 22:34:00,
2013-06-20 18:39:00,84.8,76.0,30.08,ESE,119,0.0,4.0,75,0.00,,,0.00,Wunderground v.1.15,2013-06-20 22:39:00,
2013-06-20 18:44:00,84.8,76.0,30.08,ENE,67,0.0,3.0,75,0.00,,,0.00,Wunderground v.1.15,2013-06-20 22:44:00,
2013-06-20 18:49:00,84.8,76.0,30.08,East,85,0.0,3.0,75,0.00,,,0.00,Wunderground v.1.15,2013-06-20 22:49:00,
2013-06-20 18:54:00,84.7,75.5,30.08,NE,56,0.0,5.0,74,0.00,,,0.00,Wunderground v.1.15,2013-06-20 22:54:00,
2013-06-20 18:59:00,84.6,75.4,30.08,East,87,0.0,5.0,74,0.00,,,0.00,Wunderground v.1.15,2013-06-20 22:59:00,
2013-06-20 19:04:00,84.6,75.4,30.09,NNE,30,0.0,2.0,74,0.00,,,0.00,Wunderground v.1.15,2013-06-20 23:04:00,
2013-06-20 19:09:00,84.5,75.3,30.09,ENE,64,0.0,2.0,74,0.00,,,0.00,Wunderground v.1.15,2013-06-20 23:09:00,
2013-06-20 19:14:00,84.3,74.3,30.09,NE,53,3.0,4.0,72,0.00,,,0.00,Wunderground v.1.15,2013-06-20 23:14:00,
2013-06-20 19:19:00,83.6,74.0,30.09,NE,40,2.0,4.0,73,0.00,,,0.00,Wunderground v.1.15,2013-06-20 23:19:00,
2013-06-20 19:24:00,83.2,73.6,30.09,NE,53,1.0,5.0,73,0.00,,,0.00,Wunderground v.1.15,2013-06-20 23:24:00,
2013-06-20 19:29:00,82.8,73.7,30.09,ENE,69,3.0,5.0,74,0.00,,,0.00,Wunderground v.1.15,2013-06-20 23:29:00,
2013-06-20 19:34:00,82.5,73.4,30.09,NE,56,1.0,5.0,74,0.00,,,0.00,Wunderground v.1.15,2013-06-20 23:34:00,
2013-06-20 19:39:00,82.4,73.7,30.09,ENE,60,1.0,5.0,75,0.00,,,0.00,Wunderground v.1.15,2013-06-20 23:39:00,
2013-06-20 19:44:00,82.2,73.1,30.09,NNE,30,0.0,6.0,74,0.00,,,0.00,Wunderground v.1.15,2013-06-20 23:44:00,
2013-06-20 19:49:00,81.9,72.8,30.10,NE,49,0.0,6.0,74,0.00,,,0.00,Wunderground v.1.15,2013-06-20 23:49:00,
2013-06-20 19:54:00,81.6,72.1,30.09,NE,42,0.0,4.0,73,0.00,,,0.00,Wunderground v.1.15,2013-06-20 23:54:00,
2013-06-20 19:59:00,81.4,71.9,30.09,ENE,67,0.0,6.0,73,0.00,,,0.00,Wunderground v.1.15,2013-06-20 23:59:00,
2013-06-20 20:04:00,81.2,71.3,30.10,ENE,72,0.0,4.0,72,0.00,,,0.00,Wunderground v.1.15,2013-06-21 00:04:00,
2013-06-20 20:09:00,81.1,71.2,30.09,NE,34,0.0,4.0,72,0.00,,,0.00,Wunderground v.1.15,2013-06-21 00:09:00,
2013-06-20 20:14:00,81.0,71.1,30.09,NE,39,0.0,2.0,72,0.00,,,0.00,Wunderground v.1.15,2013-06-21 00:14:00,
2013-06-20 20:19:00,81.0,71.5,30.09,NNE,26,0.0,3.0,73,0.00,,,0.00,Wunderground v.1.15,2013-06-21 00:19:00,
2013-06-20 20:24:00,80.8,71.3,30.10,NNE,25,0.0,1.0,73,0.00,,,0.00,Wunderground v.1.15,2013-06-21 00:24:00,
2013-06-20 20:29:00,80.7,71.2,30.09,East,86,1.0,2.0,73,0.00,,,0.00,Wunderground v.1.15,2013-06-21 00:29:00,
2013-06-20 20:34:00,80.7,71.6,30.09,NNE,33,1.0,1.0,74,0.00,,,0.00,Wunderground v.1.15,2013-06-21 00:34:00,
2013-06-20 20:39:00,80.7,71.6,30.09,NE,37,0.0,2.0,74,0.00,,,0.00,Wunderground v.1.15,2013-06-21 00:39:00,
2013-06-20 20:44:00,80.7,71.6,30.09,NE,49,2.0,2.0,74,0.00,,,0.00,Wunderground v.1.15,2013-06-21 00:44:00,
2013-06-20 20:49:00,80.6,71.9,30.09,North,8,0.0,2.0,75,0.00,,,0.00,Wunderground v.1.15,2013-06-21 00:49:00,
2013-06-20 20:54:00,80.6,71.9,30.09,NE,35,1.0,4.0,75,0.00,,,0.00,Wunderground v.1.15,2013-06-21 00:54:00,
2013-06-20 20:59:00,80.7,72.0,30.09,NE,39,0.0,4.0,75,0.00,,,0.00,Wunderground v.1.15,2013-06-21 00:59:00,
2013-06-20 21:04:00,80.7,72.0,30.09,ENE,65,0.0,3.0,75,0.00,,,0.00,Wunderground v.1.15,2013-06-21 01:04:00,
2013-06-20 21:09:00,80.6,71.9,30.09,ENE,74,0.0,3.0,75,0.00,,,0.00,Wunderground v.1.15,2013-06-21 01:09:00,
2013-06-20 21:14:00,80.6,72.3,30.09,ENE,70,0.0,4.0,76,0.00,,,0.00,Wunderground v.1.15,2013-06-21 01:14:00,
2013-06-20 21:19:00,80.6,72.3,30.09,ENE,70,0.0,4.0,76,0.00,,,0.00,Wunderground v.1.15,2013-06-21 01:19:00,
2013-06-20 21:24:00,80.5,72.2,30.09,East,81,0.0,1.0,76,0.00,,,0.00,Wunderground v.1.15,2013-06-21 01:24:00,
2013-06-20 21:29:00,80.5,72.6,30.09,East,96,0.0,2.0,77,0.00,,,0.00,Wunderground v.1.15,2013-06-21 01:29:00,
2013-06-20 21:34:00,80.6,72.7,30.09,East,79,1.0,4.0,77,0.00,,,0.00,Wunderground v.1.15,2013-06-21 01:34:00,
2013-06-20 21:39:00,80.6,72.7,30.09,NE,39,0.0,4.0,77,0.00,,,0.00,Wunderground v.1.15,2013-06-21 01:39:00,
2013-06-20 21:44:00,80.5,73.0,30.10,NE,37,0.0,2.0,78,0.00,,,0.00,Wunderground v.1.15,2013-06-21 01:44:00,
2013-06-20 21:49:00,80.4,72.9,30.10,NE,46,0.0,2.0,78,0.00,,,0.00,Wunderground v.1.15,2013-06-21 01:49:00,
2013-06-20 21:54:00,80.4,72.9,30.10,East,96,0.0,0.0,78,0.00,,,0.00,Wunderground v.1.15,2013-06-21 01:54:00,
2013-06-20 21:59:00,80.3,72.8,30.10,East,89,0.0,1.0,78,0.00,,,0.00,Wunderground v.1.15,2013-06-21 01:59:00,
2013-06-20 22:04:00,80.3,72.8,30.10,East,84,0.0,1.0,78,0.00,,,0.00,Wunderground v.1.15,2013-06-21 02:04:00,
2013-06-20 22:09:00,80.2,73.1,30.10,East,97,0.0,1.0,79,0.00,,,0.00,Wunderground v.1.15,2013-06-21 02:09:00,
2013-06-20 22:14:00,80.2,73.1,30.10,East,98,0.0,1.0,79,0.00,,,0.00,Wunderground v.1.15,2013-06-21 02:14:00,
2013-06-20 22:19:00,80.0,72.9,30.10,East,98,0.0,1.0,79,0.00,,,0.00,Wunderground v.1.15,2013-06-21 02:19:00,
2013-06-20 22:24:00,79.8,72.7,30.10,East,91,0.0,0.0,79,0.00,,,0.00,Wunderground v.1.15,2013-06-21 02:24:00,
2013-06-20 22:29:00,79.9,73.2,30.10,East,91,0.0,0.0,80,0.00,,,0.00,Wunderground v.1.15,2013-06-21 02:29:00,
2013-06-20 22:34:00,79.8,73.1,30.10,East,93,0.0,1.0,80,0.00,,,0.00,Wunderground v.1.15,2013-06-21 02:34:00,
2013-06-20 22:39:00,79.8,73.1,30.10,East,93,0.0,1.0,80,0.00,,,0.00,Wunderground v.1.15,2013-06-21 02:39:00,
2013-06-20 22:44:00,79.7,73.0,30.10,East,93,0.0,0.0,80,0.00,,,0.00,Wunderground v.1.15,2013-06-21 02:44:00,
2013-06-20 22:49:00,79.6,73.3,30.10,ESE,111,0.0,0.0,81,0.00,,,0.00,Wunderground v.1.15,2013-06-21 02:49:00,
2013-06-20 22:54:00,79.7,73.3,30.11,ESE,103,0.0,1.0,81,0.00,,,0.00,Wunderground v.1.15,2013-06-21 02:54:00,
2013-06-20 22:59:00,79.7,73.7,30.11,ESE,103,0.0,1.0,82,0.00,,,0.00,Wunderground v.1.15,2013-06-21 02:59:00,
2013-06-20 23:04:00,79.7,73.7,30.11,ESE,112,0.0,1.0,82,0.00,,,0.00,Wunderground v.1.15,2013-06-21 03:04:00,
2013-06-20 23:09:00,79.7,73.7,30.11,ESE,111,0.0,1.0,82,0.00,,,0.00,Wunderground v.1.15,2013-06-21 03:09:00,
2013-06-20 23:14:00,79.5,73.5,30.11,ESE,111,0.0,0.0,82,0.00,,,0.00,Wunderground v.1.15,2013-06-21 03:14:00,
2013-06-20 23:19:00,79.4,73.8,30.11,ESE,111,0.0,0.0,83,0.00,,,0.00,Wunderground v.1.15,2013-06-21 03:19:00,
2013-06-20 23:24:00,79.2,73.6,30.11,ESE,112,0.0,0.0,83,0.00,,,0.00,Wunderground v.1.15,2013-06-21 03:24:00,
2013-06-20 23:29:00,79.1,73.5,30.11,ESE,112,0.0,0.0,83,0.00,,,0.00,Wunderground v.1.15,2013-06-21 03:29:00,
2013-06-20 23:34:00,79.0,73.4,30.11,ESE,112,0.0,0.0,83,0.00,,,0.00,Wunderground v.1.15,2013-06-21 03:34:00,
2013-06-20 23:39:00,79.0,73.4,30.11,ESE,112,0.0,0.0,83,0.00,,,0.00,Wunderground v.1.15,2013-06-21 03:39:00,
2013-06-20 23:44:00,79.0,73.7,30.11,ESE,111,0.0,0.0,84,0.00,,,0.00,Wunderground v.1.15,2013-06-21 03:44:00,
2013-06-20 23:50:00,79.0,73.7,30.10,ESE,112,0.0,0.0,84,0.00,,,0.00,Wunderground v.1.15,2013-06-21 03:50:00,
2013-06-20 23:55:00,78.9,73.7,30.10,ESE,111,0.0,0.0,84,0.00,,,0.00,Wunderground v.1.15,2013-06-21 03:55:00,